Location: Hokitika
(42.7170°S, 170.9670°E)
Time: 16:15:05
(UTC+13:00)

Cosmos 1340 Rocket - Pass Details

Date: 24 January 2019
Orbit: 529 x 560 km, 81.2° (Epoch: 20 February)

Event Time Altitude Azimuth Distance (km) Brightness Sun altitude
Exits shadow 23:51:23 52° 117° (ESE) 682 3.2 -22.5°
Drops below altitude 10° 23:54:50 10° 162° (SSE) 1,829 6.0 -22.8°
Sets 23:57:03 0° 166° (SSE) 2,736 7.1 -23.0°
